Location: Betpouey
(42.8833°N, 0.0333°E)
Time: 07:49:30
(UTC+00:00)

Landsat 5 - Pass Details

Date: 01 December 2020
Orbit: 528 x 654 km, 98.2° (Epoch: 17 January)

Event Time Altitude Azimuth Distance (km) Brightness Sun altitude
Rises 16:53:53 0° 14° (NNE) 2,950 6.7 -5.3°
Reaches altitude 10° 16:56:05 10° 16° (NNE) 2,048 5.8 -5.6°
Maximum altitude 17:00:34 77° 103° (ESE) 672 3.7 -6.4°
Drops below altitude 10° 17:05:05 10° 190° (S) 2,056 6.7 -7.1°
Sets 17:07:17 0° 191° (SSW) 2,961 7.6 -7.5°
